Location: Gad�tanya
(48.0500°N, 20.8500°E)
Time: 11:48:10
(UTC+00:00)

Atlas Centaur 2 - Pass Details

Date: 05 July 2020
Orbit: 459 x 1310 km, 30.4° (Epoch: 14 August)

Event Time Altitude Azimuth Distance (km) Brightness Sun altitude
Rises 20:30:52 0° 240° (WSW) 3,433 5.4 -13.5°
Reaches altitude 10° 20:34:18 10° 219° (SW) 2,670 4.6 -13.8°
Maximum altitude 20:38:06 16° 183° (S) 2,425 4.1 -14.1°
Enters shadow 20:38:52 16° 176° (S) 2,473 4.1 -14.1°
